Location: ?
(35.4554°N, 139.3092°E)
Time: 22:48:59
(UTC+00:00)

FALCON 9 DEB - Pass Details

Date: 21 April 2021
Orbit: 368 x 387 km, 53.0° (Epoch: 10 May)

Event Time Altitude Azimuth Distance (km) Brightness Sun altitude
Exits shadow 18:54:07 29° 248° (WSW) 718 3.6 -13.7°
Maximum altitude 18:54:34 31° 230° (SW) 693 3.6 -13.7°
Drops below altitude 10° 18:57:20 10° 166° (SSE) 1,382 5.6 -13.1°
Sets 18:59:30 0° 155° (SSE) 2,234 6.7 -12.7°
